Regional Weather Roundup
Issued by NWS

Home | Current Version | Previous Version | Graphics & Text | Print | Product List | Glossary On
Versions: 1 2 3 4 5 6 7 8 9 10 11 12 13 14 15 16 17 18 19 20 21 22 23 24 25 26 27 28 29 30 31 32 33 34 35 36 37 38 39 40 41 42 43 44 45 46 47 48 49 50
000
ASUS43 KBIS 030710
RWRND

NORTH DAKOTA REGIONAL WEATHER ROUNDUP
NATIONAL WEATHER SERVICE BISMARCK ND
200 AM CDT FRI JUL 03 2015

NOTE: "FAIR" INDICATES FEW OR NO CLOUDS BELOW 12,000 FEET WITH NO
SIGNIFICANT WEATHER AND/OR OBSTRUCTIONS TO VISIBILITY.


NDZ001>003-009>011-017-030800-
NORTHWEST NORTH DAKOTA

CITY           SKY/WX    TMP DP  RH WIND       PRES   REMARKS
WILLISTON      CLEAR     65  61  87 N5        30.02S
MINOT          MOCLDY    64  60  87 SW3       29.97S FOG
MINOT AFB      CLEAR     63  63 100 NW6       29.96S
$$

NDZ018>021-031>035-040>046-030800-
SOUTHWEST NORTH DAKOTA

CITY           SKY/WX    TMP DP  RH WIND       PRES   REMARKS
BISMARCK       CLOUDY    66  63  90 CALM      29.99S FOG
DICKINSON      CLEAR     61  57  87 CALM      30.03S FOG
GARRISON         N/A     63  61  93 CALM      29.99S
HETTINGER ARPT CLEAR     56  55  97 CALM      30.06F FOG
$$

NDZ004>008-012>016-024-026-027-054-030800-
NORTHEAST NORTH DAKOTA

CITY           SKY/WX    TMP DP  RH WIND       PRES   REMARKS
GRAND FORKS    CLOUDY    65  64  97 NW6       29.88F FOG
GRND FRKS AFB  CLEAR     66  63  91 NW6       29.90S
DEVILS LAKE    CLEAR     64  61  88 NW7       29.92F
$$

NDZ022-023-025-028>030-036>039-047>053-030800-
SOUTHEAST NORTH DAKOTA

CITY           SKY/WX    TMP DP  RH WIND       PRES   REMARKS
FARGO          CLEAR     64  58  80 S8        29.92F
JAMESTOWN      CLOUDY    65  61  87 CALM      29.94F FOG
$$



USA.gov is the U.S. government's official web portal to all federal, state and local government web resources and services.